KLM235 EHAM-TNCM

Flight info

Callsign KLM235
Flight time N/A
Altitude 34000
Route BERGI L60 PENIL M144 BAGSO DCT LIMRI/M083F340 DCT 51N020W 49N030W 44N040W/M083F360 34N050W/M083F380 27N056W 22N060W DCT OBIKE/N0479F380 L335 TRNKY ULUBA1
Aircraft B744/H-SDE3FGHIM1M2RWXY/LB1

Departure

Time 2026-05-04 07:14
Airport Amsterdam Airport Schiphol (EHAM)

Arrival

Time N/A
Airport Princess Juliana International Airport (TNCM)
Time Latitude Longitude Altitude Speed Heading
2026-05-04 06:36 52.31354 4.75582 0 ft 0 kts 86°
2026-05-04 06:44 52.31344 4.75481 0 ft 2 kts 50°
2026-05-04 06:44 52.31333 4.75464 0 ft 2 kts 30°
2026-05-04 06:44 52.31319 4.75455 0 ft 2 kts 10°
2026-05-04 06:45 52.31308 4.75451 0 ft 0 kts 356°
2026-05-04 06:45 52.31302 4.75453 0 ft 1 kts 190°
2026-05-04 06:45 52.31305 4.75448 0 ft 6 kts 63°
2026-05-04 06:45 52.31271 4.75492 0 ft 11 kts 160°
2026-05-04 06:46 52.31224 4.75513 0 ft 14 kts 213°
2026-05-04 06:46 52.31205 4.75529 0 ft 12 kts 115°
2026-05-04 06:48 52.31354 4.75586 0 ft 0 kts 86°
2026-05-04 06:53 52.31354 4.75585 0 ft 0 kts 86°
2026-05-04 06:54 52.31353 4.75566 0 ft 2 kts 86°
2026-05-04 06:54 52.31352 4.75541 0 ft 2 kts 86°
2026-05-04 06:54 52.31352 4.75522 0 ft 0 kts 86°
2026-05-04 06:55 52.31350 4.75501 0 ft 2 kts 71°
2026-05-04 06:55 52.31344 4.75481 0 ft 2 kts 50°
2026-05-04 06:55 52.31334 4.75465 0 ft 2 kts 31°
2026-05-04 06:55 52.31320 4.75455 0 ft 2 kts 12°
2026-05-04 06:56 52.31308 4.75452 0 ft 0 kts 357°
2026-05-04 06:57 52.31302 4.75453 0 ft 0 kts 356°
2026-05-04 07:01 52.31308 4.75452 0 ft 1 kts 355°
2026-05-04 07:01 52.31328 4.75449 0 ft 3 kts 355°
2026-05-04 07:02 52.31362 4.75445 0 ft 5 kts 355°
2026-05-04 07:02 52.31409 4.75439 0 ft 7 kts 355°
2026-05-04 07:02 52.31469 4.75432 0 ft 9 kts 359°
2026-05-04 07:02 52.31513 4.75499 0 ft 10 kts 79°
2026-05-04 07:03 52.31519 4.75636 0 ft 12 kts 86°
2026-05-04 07:03 52.31526 4.75803 0 ft 16 kts 86°
2026-05-04 07:03 52.31532 4.76012 0 ft 20 kts 87°
2026-05-04 07:03 52.31540 4.76261 0 ft 23 kts 87°
2026-05-04 07:04 52.31548 4.76542 0 ft 25 kts 87°
2026-05-04 07:04 52.31562 4.76819 0 ft 23 kts 85°
2026-05-04 07:04 52.31571 4.77086 0 ft 22 kts 87°
2026-05-04 07:04 52.31573 4.77162 0 ft 0 kts 87°
2026-05-04 07:05 52.31574 4.77169 0 ft 1 kts 87°
2026-05-04 07:05 52.31575 4.77196 0 ft 3 kts 87°
2026-05-04 07:05 52.31576 4.77244 0 ft 5 kts 87°
2026-05-04 07:06 52.31601 4.77363 0 ft 6 kts 58°
2026-05-04 07:06 52.31630 4.77435 0 ft 9 kts 56°
2026-05-04 07:06 52.31673 4.77541 0 ft 12 kts 56°
2026-05-04 07:07 52.31733 4.77666 0 ft 15 kts 41°
2026-05-04 07:08 52.32053 4.77793 0 ft 0 kts 38°
2026-05-04 07:12 52.32042 4.78008 0 ft 0 kts 181°
2026-05-04 07:12 52.32041 4.78008 0 ft 0 kts 181°
2026-05-04 07:12 52.32040 4.78008 0 ft 0 kts 181°
2026-05-04 07:12 52.32039 4.78008 0 ft 0 kts 181°
2026-05-04 07:13 52.32038 4.78008 0 ft 0 kts 181°
2026-05-04 07:13 52.32037 4.78007 0 ft 0 kts 181°
2026-05-04 07:13 52.32036 4.78007 0 ft 0 kts 181°
2026-05-04 07:14 52.30711 4.77895 33 ft 161 kts 182°
2026-05-04 07:14 52.29560 4.78007 592 ft 171 kts 165°
2026-05-04 07:15 52.28452 4.79083 739 ft 212 kts 129°
2026-05-04 07:15 52.27663 4.81349 1105 ft 237 kts 120°
2026-05-04 07:15 52.26680 4.83421 1932 ft 248 kts 147°
2026-05-04 07:15 52.25214 4.84755 3145 ft 236 kts 156°
2026-05-04 07:16 52.23609 4.85705 3816 ft 251 kts 164°
2026-05-04 07:16 52.20424 4.87371 5856 ft 259 kts 163°
2026-05-04 07:16 52.18856 4.88221 6837 ft 253 kts 163°
2026-05-04 07:17 52.17079 4.89217 7595 ft 263 kts 163°
2026-05-04 07:17 52.15404 4.90179 8349 ft 270 kts 163°
2026-05-04 07:17 52.13698 4.91186 9257 ft 274 kts 163°
2026-05-04 07:17 52.12022 4.92201 10132 ft 271 kts 163°
2026-05-04 07:18 52.10272 4.93272 10994 ft 266 kts 163°
2026-05-04 07:18 52.08524 4.94361 11692 ft 268 kts 163°